Wind_Speed
16 16 16 17 18 18 18 17 17 17 17 17 17 17 16 17 17 17 17 17 17 18 17 17 17 17 18 18 19 19 19 18 17 17 17 17 18 18 18 18 18 18 18
17 17 17 18 18 19 19 18 18 17 17 18 18 17 17 18 18 19 19 19 19 19 19 18 18 19 19 19 19 20 20 20 19 18 18 18 18 19 19 19 19 19 19
18 18 19 19 19 19 19 19 18 18 18 18 19 19 19 20 20 20 20 20 20 20 21 21 20 20 20 20 20 20 21 21 21 21 21 21 21 21 21 21 21 22 22
20 20 20 20 21 20 20 20 19 19 19 19 20 21 21 21 22 22 22 22 21 21 21 21 21 21 21 21 21 22 22 22 22 22 23 23 23 24 23 23 22 23 23
21 21 21 22 22 22 21 21 21 20 20 20 20 21 21 22 22 23 23 22 22 22 22 22 21 21 22 22 23 23 24 24 24 24 24 25 25 26 25 25 24 24 24
23 23 23 23 22 22 22 21 21 20 21 22 22 23 23 23 23 23 23 22 22 22 22 23 23 23 23 24 25 25 26 26 25 26 26 26 26 26 26 26 25 25 25
24 24 25 24 24 24 24 24 23 23 23 23 23 23 23 23 24 24 24 23 23 23 23 24 24 25 25 26 26 26 27 27 27 28 27 27 28 27 27 27 27 26 26
25 26 25 25 25 25 26 25 24 24 24 24 24 23 24 24 24 24 24 24 25 25 25 25 25 25 26 27 27 27 28 28 28 28 28 28 29 29 29 29 29 28 28
27 27 26 26 25 25 26 25 25 25 24 24 25 25 25 24 25 25 25 26 26 26 26 26 26 27 27 28 28 28 28 29 29 29 29 29 30 30 30 30 30 30 29
27 26 27 26 26 26 26 26 26 27 27 26 26 26 26 25 25 26 26 26 27 27 27 27 27 28 28 29 29 29 29 30 30 30 30 30 31 31 31 31 31 30 30
27 26 27 28 27 27 27 28 28 27 27 27 27 27 27 27 27 27 27 27 27 27 28 28 29 29 30 30 30 30 31 31 30 30 30 30 31 31 32 32 32 32 32
29 27 28 28 28 28 28 28 29 28 28 27 27 27 28 28 29 29 29 28 29 29 29 30 30 30 31 31 32 32 32 32 32 32 31 32 32 33 33 34 33 33 32
30 29 28 28 29 29 29 29 29 29 29 29 29 29 30 30 30 30 29 30 30 30 30 31 31 32 32 33 33 34 34 34 33 33 33 34 34 34 34 33 34 34 34
30 30 29 29 29 29 29 29 29 29 30 30 30 30 31 30 30 30 30 31 32 31 32 32 32 33 33 34 34 34 34 34 34 34 34 34 35 35 34 34 34 34 34
30 30 30 30 30 30 29 29 30 30 30 30 31 31 31 31 31 31 31 32 33 33 33 33 33 34 34 34 35 35 35 34 34 35 35 35 35 35 35 35 34 34 34
31 31 31 30 30 30 30 31 30 31 31 31 31 32 32 32 33 33 33 34 34 34 34 34 34 35 36 35 35 35 35 35 35 35 35 35 35 35 35 34 33 33 33
31 32 32 31 30 31 31 32 32 31 32 32 33 33 33 33 33 34 34 34 35 35 34 34 35 35 35 35 35 35 35 35 35 36 36 35 35 34 34 34 33 33 33
32 32 32 32 32 32 33 34 33 32 33 33 34 34 34 34 35 35 35 35 35 35 35 35 35 35 35 35 35 35 35 35 36 36 35 34 34 35 35 34 33 33 33
32 32 33 33 34 34 35 34 34 34 35 34 35 35 35 35 36 36 36 36 35 35 35 36 36 35 35 35 35 35 35 35 35 34 34 34 34 34 34 34 34 34 33
32 32 33 34 35 35 35 35 35 35 36 36 36 36 35 35 36 36 36 36 36 36 36 36 36 36 35 35 35 35 34 35 35 34 34 34 34 34 34 33 34 33 32
32 32 33 34 35 35 35 35 35 35 36 36 37 37 36 37 37 36 36 36 36 36 36 35 36 35 35 35 34 34 35 35 34 34 34 34 34 34 34 33 33 33 32
33 34 35 35 35 36 36 36 36 36 37 37 36 36 37 37 37 37 37 36 36 36 35 35 34 35 34 34 35 35 35 35 34 34 34 34 34 34 34 33 33 32 32
32 33 34 34 35 34 35 35 35 36 36 37 37 36 36 37 37 37 36 36 36 36 35 35 35 34 34 35 35 35 36 35 35 34 34 35 34 34 34 34 33 32 32
33 33 33 34 34 35 35 35 35 35 35 35 35 35 36 36 36 36 35 35 35 35 35 35 34 34 34 34 34 35 35 35 34 34 34 34 34 34 34 34 32 31 31
32 32 32 33 33 33 34 34 35 35 35 35 35 36 36 37 36 36 35 34 34 34 34 34 34 33 33 33 34 35 35 35 34 34 34 34 34 34 34 33 32 31 31
29 30 30 31 31 32 32 33 33 33 34 34 34 35 35 35 35 35 34 34 34 34 34 34 33 33 33 33 33 33 33 33 33 34 33 33 33 33 32 32 32 31 31
Wind_Direction
291 294 295 297 300 302 302 302 299 298 297 299 301 300 300 301 303 304 304 304 303 303 302 303 304 306 307 308 309 310 309 308 308 308 307 307 305 305 304 303 302 300 297
289 290 292 295 297 300 301 302 300 298 297 297 299 300 299 300 302 302 302 302 302 300 300 300 301 302 304 305 306 306 307 306 304 305 306 305 304 304 303 304 302 302 298
287 289 291 292 294 298 300 299 299 298 297 297 297 298 299 300 301 301 300 300 300 299 300 299 299 300 302 303 304 304 304 303 302 302 302 301 301 302 302 300 300 300 298
285 287 290 291 291 293 296 296 297 297 297 296 297 297 297 297 298 298 299 299 298 298 299 300 298 299 300 300 301 302 302 302 301 300 299 299 299 299 300 299 297 297 295
284 286 289 289 290 290 292 293 294 294 294 295 296 297 298 298 298 298 300 301 300 298 298 298 297 298 299 299 300 300 300 300 300 300 299 298 298 298 297 298 297 295 293
284 285 287 288 287 287 289 290 291 291 292 293 294 295 296 296 298 298 300 298 299 298 297 297 296 296 298 299 299 299 299 299 298 298 299 298 298 298 297 296 295 293 291
284 285 285 286 286 285 285 287 288 289 290 292 292 292 293 293 294 296 298 296 297 299 297 296 295 295 295 295 296 297 298 299 297 298 298 299 299 298 297 296 295 293 294
281 283 283 285 286 287 287 288 288 289 289 291 291 291 290 292 292 294 293 294 294 296 297 295 296 296 294 294 294 296 297 298 299 299 298 298 298 297 297 296 295 294 293
279 280 281 283 285 287 290 289 288 289 289 289 289 289 290 292 292 292 292 292 293 294 294 296 296 295 295 294 294 295 296 296 298 297 295 295 295 295 296 296 296 294 293
279 280 282 281 283 286 287 289 290 290 290 290 290 290 290 291 291 291 292 294 293 292 293 294 294 294 295 295 295 295 295 295 296 295 294 293 294 294 295 295 295 294 292
278 278 278 279 281 283 285 288 290 290 289 289 289 290 290 291 292 293 293 294 294 294 294 294 293 293 293 293 294 295 295 295 295 295 294 294 293 294 295 294 292 293 292
278 277 276 277 279 281 284 287 288 288 289 289 290 290 292 293 293 293 294 295 295 295 295 294 294 293 292 293 293 295 295 295 294 294 293 293 293 293 293 292 290 290 291
277 277 277 278 279 281 283 285 286 288 289 289 289 290 291 293 293 294 294 295 295 296 295 294 293 293 292 293 293 294 294 293 293 292 292 292 293 293 292 291 290 289 289
277 277 278 279 280 281 283 284 285 287 288 288 289 290 291 291 292 292 293 294 294 294 295 295 294 293 292 292 293 293 293 293 293 292 292 292 293 293 291 290 290 290 289
275 276 278 280 281 281 281 282 284 286 286 287 287 288 289 290 291 292 292 293 294 294 294 294 293 294 293 293 293 293 293 292 292 292 292 292 292 292 291 291 291 290 289
273 275 278 279 281 282 282 282 283 284 284 285 286 288 289 290 291 292 292 293 293 293 293 293 294 295 294 293 293 293 293 293 293 293 293 293 293 292 292 292 292 290 289
274 276 277 278 281 282 282 283 284 284 285 285 286 287 288 288 290 291 292 293 293 293 293 294 295 295 295 293 292 292 292 294 294 293 293 293 292 293 294 294 293 292 291
274 275 277 278 280 282 282 284 284 285 285 286 287 286 286 287 288 290 290 292 293 293 293 294 295 295 294 294 292 292 292 293 294 294 293 293 293 294 295 295 294 294 292
275 275 277 278 280 282 283 284 285 285 286 287 287 286 287 287 288 288 288 290 293 293 293 293 294 294 294 293 292 291 291 292 293 292 292 292 293 295 296 295 294 294 292
275 277 279 280 281 282 282 284 285 285 285 286 286 287 287 287 288 289 289 291 292 293 294 294 294 293 293 292 292 291 292 293 292 293 293 292 292 294 294 294 294 293 291
276 278 280 281 282 283 284 284 285 286 286 288 287 286 287 287 288 288 288 290 291 293 294 295 294 295 294 292 292 292 293 293 293 293 292 292 292 294 295 295 294 292 291
277 279 279 280 282 283 285 285 286 286 287 288 289 288 287 287 286 287 287 289 291 292 293 293 294 294 295 295 295 295 295 294 293 292 292 292 293 293 294 294 293 293 292
278 279 280 280 281 283 285 286 287 288 289 289 290 289 288 288 287 287 287 287 289 290 291 292 293 293 293 294 295 295 295 294 293 292 291 291 291 292 293 295 294 293 291
279 280 280 281 282 283 285 287 288 289 291 291 291 291 291 291 289 287 287 287 288 290 291 292 293 293 293 294 296 296 296 296 295 294 293 292 291 292 293 295 294 293 292
279 279 281 282 283 284 285 286 287 288 290 291 291 292 291 290 290 287 286 287 289 290 290 292 292 292 292 293 295 297 296 295 294 294 294 293 293 294 293 293 293 292 292
280 281 282 282 283 284 285 286 287 287 289 291 291 292 291 290 291 290 287 287 288 290 291 292 292 292 292 293 295 297 296 295 294 294 294 295 296 296 295 294 293 292 292
Height
5885 5885 5884 5883 5882 5880 5878 5878 5877 5876 5876 5875 5874 5872 5871 5870 5868 5867 5866 5864 5863 5862 5861 5860 5858 5857 5855 5854 5853 5851 5849 5847 5846 5845 5843 5841 5840 5838 5837 5835 5833 5832 5831
5882 5882 5881 5880 5878 5876 5875 5874 5873 5873 5872 5871 5870 5869 5867 5866 5865 5863 5862 5860 5859 5858 5857 5855 5854 5853 5851 5850 5848 5847 5845 5843 5841 5840 5839 5837 5835 5833 5832 5830 5828 5827 5825
5878 5878 5877 5876 5874 5873 5872 5871 5870 5869 5868 5867 5866 5865 5864 5862 5860 5859 5858 5856 5855 5854 5852 5851 5850 5848 5847 5845 5844 5842 5840 5838 5836 5835 5834 5832 5830 5828 5826 5824 5823 5821 5819
5874 5873 5872 5871 5870 5869 5868 5867 5866 5865 5864 5863 5862 5860 5859 5858 5856 5855 5853 5851 5850 5849 5847 5846 5844 5843 5842 5840 5839 5837 5835 5833 5831 5829 5828 5826 5824 5822 5820 5818 5817 5815 5813
5869 5868 5867 5866 5865 5864 5863 5862 5861 5860 5859 5858 5857 5856 5854 5853 5851 5850 5848 5846 5845 5844 5842 5841 5839 5838 5836 5835 5833 5831 5829 5827 5825 5823 5821 5820 5818 5816 5814 5812 5810 5808 5807
5863 5863 5862 5860 5859 5859 5858 5857 5856 5855 5854 5853 5852 5851 5849 5848 5846 5844 5843 5841 5840 5838 5837 5835 5834 5832 5831 5829 5827 5825 5823 5821 5819 5817 5815 5813 5811 5809 5807 5805 5803 5801 5800
5857 5857 5855 5854 5853 5853 5852 5851 5851 5850 5849 5848 5846 5845 5844 5842 5841 5839 5837 5836 5834 5833 5831 5829 5828 5826 5824 5822 5820 5818 5816 5814 5812 5810 5808 5806 5803 5801 5799 5797 5795 5794 5792
5851 5850 5849 5848 5847 5847 5846 5845 5844 5843 5842 5841 5840 5839 5837 5836 5834 5833 5831 5829 5828 5827 5825 5823 5821 5819 5817 5815 5813 5812 5809 5807 5805 5803 5800 5798 5796 5793 5791 5790 5788 5787 5785
5844 5843 5842 5842 5841 5840 5839 5838 5838 5837 5835 5835 5833 5832 5831 5829 5828 5826 5824 5823 5821 5820 5818 5816 5814 5812 5810 5808 5806 5804 5802 5800 5797 5795 5793 5790 5788 5786 5784 5782 5780 5778 5777
5837 5836 5836 5835 5835 5834 5833 5832 5831 5830 5829 5827 5826 5825 5824 5822 5821 5819 5817 5816 5815 5813 5811 5809 5807 5805 5803 5800 5799 5796 5794 5792 5789 5787 5785 5783 5780 5778 5776 5774 5772 5770 5768
5830 5830 5829 5829 5828 5827 5826 5825 5824 5823 5822 5820 5819 5818 5817 5815 5814 5812 5810 5809 5807 5805 5803 5801 5799 5797 5795 5793 5790 5788 5786 5783 5781 5778 5776 5774 5772 5770 5767 5765 5763 5761 5759
5823 5823 5822 5822 5821 5820 5819 5818 5817 5816 5814 5813 5812 5811 5809 5808 5806 5804 5803 5801 5799 5797 5795 5793 5791 5789 5787 5784 5782 5780 5777 5775 5772 5770 5768 5766 5763 5761 5758 5756 5754 5752 5750
5816 5815 5815 5815 5814 5813 5811 5810 5809 5808 5807 5806 5804 5803 5802 5800 5798 5797 5795 5793 5791 5789 5787 5785 5782 5780 5778 5776 5773 5771 5768 5765 5763 5760 5758 5756 5753 5751 5748 5746 5744 5742 5740
5808 5808 5807 5807 5806 5805 5803 5802 5801 5800 5799 5797 5796 5795 5793 5792 5790 5788 5786 5784 5782 5780 5778 5776 5773 5771 5769 5767 5764 5761 5758 5756 5753 5751 5748 5746 5743 5741 5738 5736 5734 5732 5730
5800 5800 5799 5799 5797 5796 5795 5794 5793 5792 5790 5789 5788 5786 5785 5783 5782 5780 5778 5776 5773 5771 5768 5766 5764 5762 5759 5757 5754 5751 5749 5746 5743 5741 5738 5735 5733 5730 5728 5725 5723 5721 5719
5791 5791 5791 5790 5789 5788 5787 5786 5784 5783 5782 5780 5779 5777 5775 5774 5772 5770 5768 5766 5764 5761 5759 5757 5754 5751 5749 5747 5744 5742 5739 5736 5733 5731 5728 5725 5722 5720 5717 5715 5712 5710 5708
5782 5782 5781 5781 5780 5779 5778 5777 5776 5775 5773 5772 5770 5768 5766 5765 5763 5761 5758 5756 5754 5751 5749 5746 5744 5741 5739 5736 5734 5731 5728 5726 5723 5720 5717 5715 5712 5710 5707 5705 5702 5700 5698
5773 5773 5773 5772 5771 5770 5769 5768 5766 5765 5764 5763 5761 5759 5757 5755 5753 5751 5749 5746 5744 5741 5739 5736 5733 5731 5728 5725 5723 5720 5718 5715 5713 5710 5707 5705 5702 5700 5697 5695 5692 5690 5687
5764 5764 5763 5763 5762 5761 5760 5758 5757 5756 5754 5753 5751 5749 5748 5746 5743 5741 5738 5736 5734 5731 5729 5726 5723 5720 5718 5715 5712 5710 5707 5705 5702 5700 5697 5695 5693 5690 5687 5684 5682 5679 5677
5755 5755 5754 5753 5752 5751 5749 5748 5747 5746 5744 5743 5741 5739 5737 5735 5733 5731 5728 5726 5724 5721 5718 5716 5713 5710 5707 5705 5702 5700 5697 5695 5692 5690 5687 5685 5682 5680 5677 5674 5671 5669 5667
5746 5745 5745 5744 5743 5741 5740 5739 5737 5735 5734 5733 5731 5729 5726 5724 5722 5720 5718 5716 5714 5711 5708 5705 5703 5700 5697 5695 5692 5690 5688 5685 5682 5680 5677 5675 5672 5670 5667 5664 5661 5659 5656
5736 5736 5735 5734 5733 5732 5730 5729 5727 5726 5724 5722 5720 5717 5715 5713 5711 5709 5708 5706 5703 5701 5698 5696 5693 5690 5688 5685 5683 5680 5678 5675 5672 5670 5667 5665 5662 5660 5657 5654 5652 5649 5647
5726 5726 5725 5724 5723 5722 5720 5719 5717 5715 5713 5711 5709 5707 5704 5702 5700 5699 5697 5695 5693 5691 5689 5686 5683 5681 5678 5676 5673 5670 5668 5665 5662 5660 5657 5655 5652 5650 5647 5644 5641 5639 5636
5716 5716 5715 5714 5713 5712 5711 5709 5707 5706 5703 5701 5699 5696 5694 5692 5690 5688 5686 5684 5682 5680 5678 5676 5674 5671 5668 5666 5663 5660 5657 5654 5652 5649 5647 5644 5642 5639 5637 5634 5631 5629 5626
5706 5706 5705 5704 5703 5702 5701 5699 5697 5695 5693 5691 5689 5687 5684 5682 5679 5677 5674 5673 5672 5670 5668 5665 5663 5660 5658 5655 5653 5650 5647 5644 5642 5639 5637 5634 5631 5628 5626 5623 5621 5619 5616
5697 5696 5695 5694 5693 5692 5691 5689 5687 5685 5683 5681 5679 5676 5674 5671 5669 5667 5664 5663 5661 5659 5657 5654 5652 5650 5647 5645 5642 5639 5637 5634 5631 5629 5626 5623 5621 5618 5615 5613 5611 5608 5606